Flag for Russia Weather past 2 weeks in Kazan, Russia

32 °F

Low clouds.

Feels Like: 22 °F
Forecast: 27 / 34 °F
Wind: 15 mph from South

Location: Kazan'

Current Time: Dec 1, 2015 at 12:43:56 PM

Latest Report: Dec 1, 2015 at 12:00 PM

Visibility: N/A

Pressure: 29.83 "Hg

Humidity: 93%

Dew point: 30 °F

Location of KazanLocation

Historic Weather in Kazan — Graph


Kazan temperature yesterday

Maximum temperature yesterday: 30 °F (at 4:00 PM)
Minimum temperature yesterday: 19 °F (at 12:00 AM)
Average temperature yesterday: 26 °F

Past Weeks' High & Low Weather Summary

High48 °F (Nov 23, 10:30 AM)100% (Nov 18, 8:00 PM)30.24 "Hg (Nov 18, 8:00 PM)
Low18 °F (Nov 18, 7:00 PM)69% (Nov 24, 12:00 PM)29.39 "Hg (Nov 21, 1:00 PM)
Average27 °F91%29.96 "Hg
* Reported Nov 16 11:00 AM — Dec 1 11:30 AM, Kazan, Weather by CustomWeather, © 2015

Note: Actual official high and low records may vary slightly from our data, if they occured in-between our weather recording intervals... More about our weather records


Kazan weather history for previous 24 hours

Time TempWeatherWind HumidityBarometerVisibility
11:30 AM
Tue, Dec 1
32 °FLow clouds.20 mph93%29.83 "HgN/A
11:00 AM32 °FLow clouds.17 mph93%29.83 "HgN/A
10:30 AM32 °FOvercast.15 mph93%29.86 "HgN/A
10:00 AM32 °FOvercast.17 mph93%29.83 "HgN/A
9:30 AM32 °FOvercast.15 mph93%29.86 "HgN/A
9:00 AM32 °FLow clouds.10 mph93%29.83 "HgN/A
8:30 AM32 °FLow clouds.10 mph93%29.83 "HgN/A
8:00 AM32 °FLow clouds.13 mph100%29.83 "Hg6 mi
7:30 AM32 °FLow clouds.15 mph93%29.83 "Hg4 mi
7:00 AM32 °FLow clouds.15 mph93%29.83 "Hg4 mi
6:30 AM32 °FIce fog.15 mph93%29.83 "Hg3 mi
6:00 AM32 °FLow clouds.15 mph93%29.83 "Hg6 mi
5:30 AM32 °FLow clouds.15 mph93%29.83 "HgN/A
5:00 AM32 °FLow clouds.15 mph87%29.83 "HgN/A
4:00 AM30 °FOvercast.10 mph93%29.83 "HgN/A
3:00 AM30 °FOvercast.10 mph86%29.83 "HgN/A
2:30 AM30 °FOvercast.13 mph86%29.83 "HgN/A
2:00 AM30 °FOvercast.13 mph86%29.86 "HgN/A
1:30 AM32 °FOvercast.10 mph80%29.86 "HgN/A
1:00 AM32 °FOvercast.13 mph80%29.86 "HgN/A
12:30 AM30 °FPassing clouds.13 mph86%29.86 "HgN/A
12:00 AM30 °FPassing clouds.13 mph86%29.86 "HgN/A
11:30 PM
Mon, Nov 30
30 °FPassing clouds.13 mph86%29.86 "HgN/A
11:00 PM30 °FPassing clouds.8 mph86%29.89 "HgN/A
10:30 PM30 °FIcy mix. Passing clouds.10 mph86%29.89 "HgN/A
10:00 PM30 °FOvercast.13 mph86%29.89 "HgN/A
9:30 PM30 °FMixture of precip. Passing clouds.13 mph86%29.89 "HgN/A
9:00 PM30 °FMixture of precip. Passing clouds.13 mph80%29.89 "HgN/A
8:30 PM30 °FMixture of precip. Passing clouds.10 mph80%29.92 "HgN/A
8:00 PM30 °FMixture of precip. Overcast.10 mph80%29.92 "HgN/A
7:30 PM30 °FMixture of precip. Overcast.15 mph80%29.92 "HgN/A
7:00 PM28 °FMixture of precip. Overcast.15 mph86%29.95 "Hg5 mi
6:30 PM30 °FIcy mix. Overcast.15 mph75%29.95 "HgN/A
6:00 PM30 °FOvercast.15 mph75%29.95 "HgN/A
5:30 PM30 °FLow level haze.15 mph75%29.95 "HgN/A
5:00 PM30 °FLight snow. Low level haze.15 mph75%29.95 "HgN/A
4:30 PM30 °FLight snow. Overcast.13 mph75%29.98 "HgN/A
4:00 PM30 °FOvercast.15 mph75%29.98 "HgN/A
3:30 PM28 °FLight snow. Low level haze.15 mph80%29.98 "HgN/A
3:00 PM28 °FLight snow. Overcast.15 mph80%29.98 "HgN/A
2:30 PM28 °FIcy mix. Overcast.13 mph80%30.01 "HgN/A
2:00 PM28 °FPartly sunny.13 mph80%30.01 "HgN/A
1:30 PM28 °FSunny.13 mph80%30.01 "Hg10 mi
1:00 PM28 °FSunny.15 mph74%30.04 "Hg10 mi
12:30 PM28 °FSunny.13 mph80%30.04 "Hg10 mi
12:00 PM28 °FSunny.13 mph80%30.07 "Hg10 mi
Weather by CustomWeather, © 2015

See weather overviewHow to use our weather pages